Volver al catálogo

TAURUS 3

ActivoComunicacionesVLEO
NORAD 66296·PAYLOAD·🇹🇷 Turkey
Este nombre de satélite aún no ha sido confirmado por fuentes oficiales.

Lanzado Nov 2, 2025 desde Cape Canaveral Space Force Station

Loading…

Próximos Pases (próximas 24 horas)

TLE

ActualizadoSource: Space-Track

Época: Sep 14, 2026, 06:35 UTC

1 66296U 25248D   26257.27468566  .00005184  00000-0  23065-3 0  9993
2 66296  45.4038   1.4366 0004615 227.5069 132.5429 15.22672253 48106

Sigue TAURUS 3 en tiempo real con AllMySat

Download on the App Store